{"data":{"norad_id":47816,"intl_designator":"2021-018AF","name":"STARLINK-2399","alt_names":[],"object_type":"PAYLOAD","status":"ACTIVE","operator":null,"country":"US","launch_date":"2021-03-11","launch_site_code":"AFETR","launch_vehicle":null,"mission":null,"orbit_class":"UNKNOWN","rcs_meters":null,"size_class":null,"mass_kg":null,"dimensions":null,"purposes":["comms"],"wikipedia_slug":null,"has_3d_model":false,"image_url":null,"decayed_at":null,"tle_current":{"epoch":"2026-05-25T06:00:02.000160Z","epoch_age_seconds":64178,"freshness":"FRESH","line1":"1 47816U 21018AF  26145.25002315  .00052988  00000+0  17083-2 0  9996","line2":"2 47816  53.1587 262.0972 0001199 105.5622   1.4620 15.31680137  5762","mean_motion":15.31680137,"eccentricity":0.0001199,"inclination_deg":53.1587,"raan_deg":262.0972,"arg_perigee_deg":105.5622,"mean_anomaly_deg":1.462,"bstar":0.0017083,"rev_number":576,"period_min":94.014407134667,"perigee_km":469.97801898378,"apogee_km":471.62039388609,"semimajor_km":6848.9362064349,"source":"CELESTRAK","updated_at":"2026-05-25T13:38:16.602704Z"}}}